Wetbulb
39.60 39.96 37.85 40.06 39.94 36.22 37.54 36.23 35.53 34.97 34.75 34.98 36.77 37.28 39.86 42.36 37.34 37.67 39.39 39.88 38.65 38.34 40.27 40.35 39.32 39.02 38.94 40.32 39.63 39.15 38.30 38.15 38.08 37.78 37.48 37.43 37.68 37.78 36.80 34.83 33.06 32.24 31.72 31.31
38.54 36.98 37.95 37.61 36.44 36.11 36.05 35.07 35.68 35.26 33.89 33.38 35.62 34.92 39.03 40.48 40.17 40.32 40.36 40.34 39.93 39.54 39.16 38.93 38.32 38.11 37.86 39.00 39.21 38.63 38.39 37.50 36.99 37.20 37.33 37.58 37.09 36.88 35.72 34.07 32.54 31.37 30.58 30.18
38.09 35.88 35.85 35.91 34.64 34.53 34.57 34.88 33.60 33.80 33.45 34.16 33.44 36.70 38.22 40.18 40.05 40.59 41.02 42.03 42.09 40.59 38.92 37.97 37.11 37.15 37.70 38.50 38.72 38.19 37.92 36.88 36.15 35.33 35.17 35.09 34.94 35.22 35.19 32.84 31.73 30.48 29.59 29.27
36.06 35.39 34.63 35.01 34.12 35.51 31.97 34.86 33.59 32.16 33.40 31.89 33.47 31.48 38.58 41.21 38.73 37.94 39.07 39.50 40.53 40.94 40.38 39.14 37.45 36.69 37.05 38.44 39.35 38.58 37.24 35.83 34.87 34.41 34.28 33.56 34.28 33.45 32.15 30.89 30.82 29.88 28.96 28.28
35.15 33.35 33.32 33.20 34.30 35.26 32.89 34.09 33.34 31.78 31.79 29.80 30.13 29.09 37.48 36.15 38.10 41.48 41.53 40.63 40.61 41.47 40.38 39.17 38.00 37.31 37.66 38.51 38.24 37.91 36.47 34.94 33.68 33.47 33.68 33.71 32.07 32.22 31.54 30.88 29.00 28.69 28.64 28.04
33.33 35.44 35.03 34.67 32.31 33.55 33.72 33.21 32.24 31.70 31.18 30.47 27.90 29.28 34.32 38.04 38.57 38.97 40.71 39.94 39.02 40.04 39.84 39.59 39.24 38.21 37.33 38.06 37.67 36.92 34.96 33.69 32.89 32.49 31.96 31.83 30.53 29.25 30.05 28.51 28.07 27.67 27.83 27.59
32.03 32.33 34.24 34.65 32.75 33.61 33.00 33.28 34.78 30.53 27.63 30.41 26.15 25.12 33.78 39.09 39.33 37.89 39.27 40.39 39.13 39.16 38.72 38.38 36.96 36.06 36.18 35.84 36.17 35.55 34.34 32.08 31.85 31.44 31.02 30.19 28.94 27.82 26.89 26.33 26.35 25.37 26.03 25.65
30.81 27.90 32.10 34.97 33.73 33.18 32.13 33.08 35.93 27.18 26.42 29.65 24.44 25.34 35.78 39.00 39.54 39.41 38.57 38.87 39.01 38.33 38.23 37.74 36.73 35.93 34.86 35.06 35.48 33.97 33.63 31.50 30.71 30.60 29.87 29.11 28.12 28.42 27.36 25.34 25.35 24.93 24.54 24.80
31.25 30.20 31.52 31.91 33.02 33.94 30.96 29.08 31.68 25.72 14.77 24.90 31.97 35.04 39.55 39.94 38.15 37.91 38.43 37.82 38.64 37.92 37.09 36.54 36.37 35.79 34.89 34.79 34.45 33.76 33.08 31.42 30.33 29.81 28.37 27.36 26.83 25.92 25.14 23.70 24.42 24.67 24.10 23.23
34.46 26.86 28.64 30.49 32.82 32.07 31.53 33.16 28.25 28.87 24.44 23.95 26.66 26.77 33.03 38.76 39.42 39.01 37.46 38.84 40.21 37.95 36.39 35.73 35.20 34.87 34.99 34.91 34.56 34.21 33.18 31.05 30.07 29.27 27.88 26.12 25.52 24.70 24.15 23.92 22.65 22.47 23.07 23.09
33.88 34.20 25.37 30.28 29.21 29.91 27.97 28.19 27.33 30.09 28.55 28.53 27.23 31.40 38.31 37.58 38.67 39.22 41.08 39.39 39.19 38.71 36.22 34.79 34.21 34.49 34.26 34.15 33.41 33.06 31.83 30.58 28.90 27.96 26.71 24.78 23.74 23.47 23.27 22.53 21.98 21.75 22.31 22.27
32.73 29.86 25.90 27.27 28.96 29.58 29.06 29.82 30.00 31.69 26.52 23.99 25.55 31.43 37.37 37.34 37.66 37.89 39.18 38.54 38.68 37.81 36.64 34.69 33.44 32.99 32.65 32.26 31.90 31.90 31.13 29.56 28.73 27.21 25.64 24.29 22.84 22.48 22.16 21.02 20.45 20.93 20.94 21.62
33.65 31.72 25.81 23.52 26.92 27.27 26.30 28.70 28.44 24.75 27.61 22.96 28.25 31.77 34.36 34.79 35.28 36.28 35.89 39.54 37.71 36.10 34.38 32.61 31.91 31.38 31.54 31.41 31.02 31.32 30.33 28.89 27.65 25.70 24.35 22.64 21.20 20.59 19.57 18.57 18.58 19.07 18.85 19.38
36.65 30.57 31.76 29.23 28.44 26.99 23.41 25.67 28.82 27.71 28.80 28.66 28.14 33.67 37.01 38.39 34.91 36.82 36.78 36.70 38.07 35.70 33.33 32.13 31.58 31.23 31.03 30.68 30.75 30.35 28.84 28.16 25.97 24.56 23.00 21.10 19.79 18.95 17.91 17.31 16.52 16.22 17.42 17.70
34.23 31.82 25.87 27.12 26.88 26.68 27.42 27.10 26.74 24.83 27.70 27.73 31.91 28.11 32.99 35.69 36.51 36.74 37.46 35.86 35.19 34.44 32.44 31.60 31.52 31.64 30.74 29.84 29.62 28.64 27.75 26.42 25.08 22.98 20.63 19.16 18.28 16.77 14.86 14.38 14.35 15.13 16.42 17.39
30.76 27.52 24.46 26.51 24.55 25.49 23.60 27.80 28.28 27.37 27.83 28.24 29.75 29.19 34.71 35.61 35.52 34.40 33.59 34.19 33.63 34.64 32.94 31.50 30.58 30.29 29.17 28.89 28.33 27.17 26.03 23.79 23.46 19.95 18.04 17.22 15.64 13.86 13.63 13.72 13.49 15.06 15.33 15.98
30.72 28.82 28.72 28.76 23.85 26.87 27.54 31.19 26.63 27.63 27.98 29.21 25.28 31.57 36.14 34.79 34.94 35.54 36.03 35.86 35.09 35.08 35.45 33.49 31.42 30.14 29.63 28.90 28.33 25.80 24.45 22.95 20.79 18.48 15.91 14.55 13.37 12.80 12.21 12.60 13.41 14.17 14.89 16.37
29.94 30.09 30.94 29.14 26.00 22.98 33.27 30.02 32.77 30.71 30.72 30.95 31.24 31.99 35.92 34.95 36.34 36.02 36.40 37.17 36.15 35.56 35.62 35.42 32.85 31.02 30.41 29.91 27.80 26.66 23.78 21.11 19.38 16.09 14.71 13.27 12.53 12.33 11.79 12.25 13.06 14.20 16.88 17.12
33.19 31.71 28.30 26.61 26.18 30.27 33.20 27.27 28.25 28.09 31.78 32.81 31.34 33.83 35.96 36.52 36.03 37.53 38.19 35.37 35.82 35.96 35.62 35.44 33.45 31.47 30.47 28.35 27.15 23.97 21.47 20.42 17.76 15.03 13.80 12.79 12.91 11.94 11.49 11.80 13.41 15.57 17.44 17.92
30.85 33.16 31.04 27.60 25.74 23.82 32.12 35.27 35.33 36.15 29.84 38.48 34.72 35.42 36.33 34.34 33.11 40.75 35.87 33.46 33.79 33.31 32.81 32.72 31.74 30.73 28.62 27.61 25.51 22.04 20.63 18.72 17.40 15.28 13.77 13.22 13.80 13.08 12.33 13.65 14.02 15.92 17.89 17.86
23.37 26.44 26.91 28.24 26.64 30.53 35.59 31.44 36.50 29.40 33.80 37.95 36.92 38.12 33.95 33.80 38.12 37.13 32.30 33.49 29.66 29.21 30.45 30.63 29.35 27.92 27.18 25.64 23.09 21.48 20.48 18.88 19.39 15.75 13.56 13.25 14.03 14.04 14.15 13.95 15.31 15.53 17.14 17.16
26.33 24.39 25.37 29.11 27.46 24.77 35.08 31.61 33.12 38.26 37.21 36.39 36.77 37.27 34.91 36.32 35.39 32.82 32.09 31.02 29.91 29.56 29.11 28.25 27.09 26.12 24.59 22.87 23.02 21.66 19.76 21.41 16.10 13.79 12.83 13.00 13.89 14.92 14.92 14.48 14.80 15.55 16.40 16.21
27.89 31.11 28.20 30.54 31.01 35.89 33.72 36.08 36.07 35.53 37.24 36.24 36.78 38.51 37.31 34.64 35.41 36.05 36.15 32.94 30.60 29.03 27.67 27.11 26.09 22.63 21.63 22.35 23.54 21.24 21.13 15.67 14.30 13.40 12.85 13.30 14.22 15.22 15.35 15.22 14.53 15.13 16.06 16.88
29.69 31.92 31.78 31.20 34.86 34.05 33.60 32.99 32.17 33.42 35.26 34.89 36.09 38.71 37.22 37.80 36.48 34.22 33.41 31.45 29.44 27.46 26.10 24.15 21.90 20.45 20.00 21.80 22.62 22.60 16.31 15.38 14.21 13.81 12.94 13.43 14.05 14.22 14.94 15.95 15.74 16.43 16.08 16.22
33.69 31.60 31.95 31.22 34.62 34.53 34.95 35.19 36.83 35.83 34.24 34.44 32.20 34.20 37.25 36.76 35.19 33.69 32.14 30.33 29.27 27.02 24.26 22.83 21.60 20.24 19.65 20.91 21.98 17.65 16.35 15.50 14.91 14.12 13.24 13.83 14.96 14.75 14.49 15.38 15.74 16.07 17.04 18.11
33.81 32.85 30.71 31.09 36.92 35.70 35.56 36.15 35.77 34.90 35.02 34.89 32.74 32.56 31.91 32.03 32.98 30.78 31.06 30.51 28.32 26.00 23.34 21.59 20.87 19.95 19.15 20.38 18.02 16.28 15.64 16.28 15.10 13.69 13.42 14.40 14.45 14.72 14.69 14.30 14.84 18.40 18.44 19.72
MSLP
1016.04 1015.83 1015.56 1015.53 1015.90 1015.98 1015.74 1015.96 1016.30 1017.02 1018.12 1018.26 1017.02 1016.10 1015.26 1015.80 1016.65 1016.06 1015.93 1016.32 1016.91 1017.43 1018.71 1019.97 1021.38 1022.43 1023.20 1023.94 1024.65 1025.19 1025.63 1025.94 1026.11 1026.17 1026.10 1026.07 1026.03 1026.29 1026.37 1026.69 1026.91 1026.78 1026.49 1026.05
1016.19 1015.77 1015.96 1016.08 1016.49 1016.49 1016.38 1016.40 1016.44 1017.04 1017.97 1018.23 1016.71 1015.29 1014.01 1014.02 1013.44 1013.76 1014.05 1014.32 1014.85 1016.15 1017.58 1019.11 1020.48 1021.61 1022.53 1023.14 1023.93 1024.55 1024.92 1025.41 1025.63 1025.80 1025.97 1026.04 1026.19 1026.26 1026.52 1026.71 1026.70 1026.76 1026.52 1026.22
1015.74 1016.55 1016.74 1016.80 1017.01 1016.89 1016.90 1016.75 1017.01 1017.60 1017.91 1017.77 1016.72 1013.73 1012.55 1011.84 1011.92 1012.51 1012.55 1012.88 1013.75 1014.70 1016.25 1017.89 1019.44 1020.66 1021.85 1022.49 1023.31 1024.06 1024.56 1025.05 1025.48 1025.83 1026.07 1026.28 1026.38 1026.33 1026.22 1026.41 1026.37 1026.53 1026.58 1026.23
1016.39 1017.11 1017.22 1017.38 1017.38 1017.46 1017.67 1017.60 1017.70 1017.98 1018.05 1017.68 1017.14 1013.48 1011.74 1010.81 1010.72 1011.23 1011.61 1012.33 1012.93 1014.04 1015.53 1016.91 1018.32 1019.46 1020.62 1021.61 1022.77 1023.64 1024.47 1025.06 1025.51 1025.78 1025.77 1025.82 1025.72 1025.87 1026.39 1026.57 1026.56 1026.55 1026.58 1026.40
1016.48 1017.17 1017.63 1017.81 1017.74 1017.87 1018.43 1018.54 1018.56 1018.68 1018.40 1018.25 1017.25 1015.82 1010.82 1010.65 1009.85 1009.59 1010.17 1010.98 1011.97 1013.16 1014.58 1015.82 1017.01 1018.37 1019.73 1021.09 1022.14 1023.12 1024.02 1024.78 1025.43 1025.74 1025.77 1025.73 1025.85 1026.25 1026.50 1026.57 1026.61 1026.65 1026.62 1026.57
1017.35 1018.05 1018.02 1018.41 1018.92 1018.92 1019.06 1019.01 1019.09 1019.22 1018.92 1018.42 1017.15 1015.98 1011.01 1009.83 1009.64 1009.77 1010.38 1011.28 1011.99 1013.06 1014.43 1015.68 1016.94 1018.26 1019.38 1020.77 1021.83 1022.86 1023.74 1024.55 1025.26 1025.62 1025.88 1025.86 1025.92 1026.32 1026.30 1026.52 1026.58 1026.65 1026.58 1026.61
1017.62 1018.30 1018.75 1018.82 1019.15 1019.73 1019.30 1018.60 1019.09 1019.33 1019.21 1018.07 1017.47 1016.42 1011.36 1009.46 1009.31 1009.81 1010.25 1011.04 1012.27 1013.27 1014.27 1015.49 1016.71 1017.78 1019.03 1020.28 1021.34 1022.39 1023.37 1024.23 1025.00 1025.46 1025.80 1026.00 1026.17 1026.49 1026.60 1026.79 1026.89 1026.86 1026.70 1026.72
1016.32 1018.27 1018.72 1018.89 1018.78 1018.45 1019.01 1018.66 1018.34 1018.48 1019.04 1018.14 1017.70 1014.49 1010.29 1009.31 1009.15 1009.34 1010.11 1010.88 1011.83 1012.98 1013.98 1015.09 1016.49 1017.90 1018.96 1019.96 1020.85 1021.87 1022.85 1023.80 1024.74 1025.36 1025.74 1026.13 1026.36 1026.68 1026.89 1027.13 1027.29 1027.32 1027.28 1027.17
1015.31 1017.45 1019.09 1019.29 1019.23 1019.02 1019.49 1019.37 1018.81 1018.88 1020.43 1018.56 1015.31 1012.36 1009.94 1008.87 1009.00 1009.22 1009.58 1010.69 1011.41 1012.40 1013.50 1014.56 1015.86 1017.17 1018.45 1019.48 1020.39 1021.32 1022.38 1023.47 1024.39 1025.07 1025.62 1026.13 1026.58 1026.85 1027.05 1027.38 1027.68 1027.71 1027.68 1027.73
1014.47 1016.97 1019.18 1019.81 1019.83 1019.73 1019.18 1018.95 1019.11 1018.92 1018.52 1016.91 1014.88 1013.13 1010.24 1008.90 1008.79 1009.22 1009.71 1010.31 1011.12 1012.51 1013.65 1014.71 1015.85 1016.96 1017.97 1019.08 1020.20 1021.24 1022.22 1023.07 1024.12 1025.01 1025.57 1026.09 1026.62 1027.11 1027.33 1027.58 1027.81 1027.91 1027.84 1027.70
1014.55 1015.67 1019.55 1019.85 1019.51 1018.86 1019.69 1019.21 1018.92 1018.18 1017.38 1015.98 1014.24 1011.36 1009.09 1008.83 1009.02 1009.32 1009.59 1010.34 1011.15 1012.24 1013.54 1014.76 1015.87 1016.85 1017.95 1018.97 1019.92 1020.82 1021.73 1022.66 1023.78 1024.61 1025.42 1026.17 1026.74 1027.29 1027.40 1027.68 1028.04 1028.15 1028.02 1027.83
1015.28 1016.38 1018.07 1018.94 1019.38 1019.56 1019.21 1018.56 1018.40 1017.88 1017.47 1016.63 1014.73 1010.95 1009.36 1009.35 1009.23 1009.56 1009.90 1010.37 1011.11 1011.96 1013.13 1014.41 1015.63 1016.76 1017.69 1018.48 1019.35 1020.22 1021.23 1022.07 1023.17 1024.29 1025.18 1026.03 1026.80 1027.40 1027.57 1027.91 1028.21 1028.40 1028.26 1027.91
1014.98 1015.98 1017.73 1019.02 1019.67 1019.57 1019.11 1018.07 1017.77 1017.68 1017.16 1015.91 1014.50 1011.18 1009.73 1010.01 1010.06 1010.01 1010.34 1010.75 1011.38 1012.26 1013.29 1014.36 1015.56 1016.34 1017.15 1018.07 1018.93 1019.73 1020.89 1021.78 1022.95 1024.13 1025.00 1025.97 1026.75 1027.47 1028.00 1028.25 1028.60 1028.75 1028.77 1028.38
1014.86 1015.60 1016.20 1016.67 1016.72 1016.98 1017.88 1017.06 1016.77 1017.00 1016.22 1014.60 1012.31 1011.69 1010.49 1009.68 1010.04 1010.07 1010.34 1010.78 1011.50 1012.31 1013.30 1014.39 1015.31 1015.95 1016.65 1017.33 1018.11 1019.34 1020.58 1021.65 1022.82 1023.95 1024.93 1025.84 1026.70 1027.55 1028.34 1028.58 1028.98 1029.31 1029.17 1028.80
1015.67 1015.99 1016.33 1016.44 1016.53 1016.43 1016.20 1015.89 1015.77 1016.11 1015.01 1014.41 1013.11 1012.65 1011.61 1010.64 1009.74 1009.98 1010.39 1010.88 1011.33 1012.18 1012.91 1013.70 1014.36 1015.04 1016.17 1017.18 1017.95 1019.04 1020.29 1021.43 1022.67 1023.85 1025.08 1026.10 1027.01 1027.84 1028.50 1028.90 1029.17 1029.51 1029.41 1029.12
1016.98 1017.01 1016.65 1016.54 1016.45 1016.20 1015.44 1014.75 1014.75 1014.54 1014.54 1014.35 1013.78 1012.15 1011.82 1009.95 1009.87 1009.87 1010.45 1010.88 1011.23 1011.63 1012.32 1012.80 1013.34 1014.17 1015.12 1016.26 1017.64 1018.77 1019.93 1021.24 1022.49 1023.86 1025.16 1026.28 1027.17 1028.00 1028.55 1029.07 1029.44 1029.63 1029.50 1029.37
1017.00 1016.71 1016.74 1015.85 1015.92 1015.71 1013.91 1011.98 1012.89 1012.73 1012.69 1012.54 1012.18 1010.36 1009.86 1009.85 1009.24 1009.37 1010.03 1010.67 1010.65 1010.65 1010.79 1011.36 1011.88 1012.61 1014.10 1015.29 1016.77 1018.16 1019.63 1021.14 1022.38 1023.76 1025.30 1026.34 1027.11 1027.96 1028.75 1029.17 1029.51 1029.58 1029.61 1029.43
1016.18 1016.54 1016.28 1015.56 1015.89 1013.86 1010.09 1010.21 1009.99 1009.94 1009.84 1009.93 1009.40 1008.97 1008.35 1008.21 1008.83 1009.37 1009.23 1009.81 1009.81 1009.60 1009.82 1010.49 1011.07 1012.13 1013.24 1014.83 1016.43 1018.07 1019.38 1020.79 1022.21 1023.66 1025.10 1026.15 1026.98 1027.71 1028.71 1029.27 1029.49 1029.63 1029.69 1029.43
1015.25 1015.52 1015.51 1014.87 1013.76 1011.31 1008.86 1009.48 1009.14 1008.69 1007.97 1008.14 1007.57 1007.31 1007.22 1008.15 1008.98 1008.01 1007.64 1008.36 1008.75 1009.25 1009.50 1009.70 1010.05 1011.23 1012.86 1014.33 1015.92 1017.56 1019.43 1020.74 1022.11 1023.37 1024.68 1025.71 1026.54 1027.31 1028.26 1028.94 1029.35 1029.64 1029.71 1029.53
1015.45 1014.81 1014.02 1013.65 1012.58 1010.59 1007.53 1006.45 1006.81 1007.82 1006.57 1004.74 1005.80 1006.03 1006.88 1008.26 1008.49 1007.53 1008.05 1008.51 1009.01 1009.38 1009.79 1009.99 1010.37 1011.43 1012.88 1014.35 1015.74 1017.14 1018.66 1020.09 1021.43 1022.77 1024.27 1025.46 1026.29 1026.94 1027.82 1028.51 1028.99 1029.25 1029.49 1029.51
1014.64 1014.63 1012.84 1011.67 1011.21 1008.83 1007.18 1007.19 1006.80 1006.98 1005.28 1004.25 1004.64 1005.22 1007.01 1007.53 1007.27 1007.74 1008.24 1008.84 1009.71 1009.84 1010.19 1010.64 1011.36 1012.08 1013.03 1014.39 1015.64 1016.86 1017.98 1018.73 1020.06 1022.07 1023.90 1025.23 1026.10 1026.68 1027.35 1028.11 1028.66 1029.08 1029.18 1029.24
1011.36 1012.42 1011.56 1011.28 1010.14 1008.26 1006.19 1007.47 1006.79 1005.26 1004.72 1004.54 1004.51 1005.28 1006.14 1006.27 1006.67 1007.56 1008.05 1008.36 1009.28 1010.09 1010.47 1011.10 1011.62 1012.56 1013.46 1014.65 1015.70 1016.63 1018.05 1019.54 1021.01 1021.85 1023.51 1024.76 1025.68 1026.46 1027.36 1028.02 1028.55 1029.00 1029.26 1029.25
1009.51 1008.03 1008.30 1008.31 1006.24 1005.08 1005.68 1005.26 1005.04 1005.22 1005.29 1005.18 1004.81 1005.05 1005.39 1006.04 1006.61 1007.06 1007.33 1008.17 1008.82 1009.72 1010.68 1010.89 1011.73 1013.01 1013.85 1014.66 1015.41 1016.33 1017.70 1019.33 1021.27 1022.36 1023.39 1024.68 1025.58 1026.27 1026.91 1027.48 1027.93 1028.54 1029.02 1029.13
1008.01 1007.61 1006.99 1006.98 1004.97 1004.89 1004.97 1005.55 1005.45 1005.56 1005.36 1005.59 1005.23 1005.09 1005.26 1005.71 1006.27 1007.10 1007.73 1007.55 1008.37 1009.77 1011.03 1011.62 1011.95 1012.79 1014.08 1014.84 1015.19 1016.04 1017.52 1018.74 1020.47 1022.19 1023.28 1024.39 1025.15 1025.89 1026.89 1027.42 1027.56 1027.83 1028.22 1028.55
1006.59 1006.74 1006.13 1005.60 1004.10 1004.90 1005.07 1004.98 1005.41 1005.43 1005.58 1005.69 1005.74 1005.71 1005.50 1005.48 1005.92 1006.61 1007.37 1008.11 1008.20 1009.16 1010.68 1011.55 1011.81 1012.41 1013.46 1014.60 1015.28 1016.37 1017.10 1018.33 1019.97 1021.38 1022.59 1023.68 1024.51 1025.37 1026.26 1026.97 1027.21 1027.55 1027.91 1027.99
1005.52 1005.16 1005.20 1004.28 1004.50 1004.49 1005.46 1005.08 1005.11 1005.61 1005.71 1006.14 1006.33 1006.43 1006.13 1006.40 1006.30 1006.67 1007.17 1007.38 1008.25 1009.04 1009.92 1011.15 1011.83 1012.28 1013.08 1014.10 1015.05 1016.25 1017.00 1017.69 1018.79 1020.36 1021.70 1022.65 1023.52 1024.75 1025.64 1026.37 1027.14 1027.62 1027.91 1028.13
Wind_Speed
2 5 10 11 7 2 5 4 4 2 3 6 16 20 21 14 14 17 18 19 21 23 19 18 17 16 15 14 13 11 9 7 5 4 4 3 1 0 2 5 7 8 9 10
5 10 2 7 7 3 3 2 5 2 3 5 7 18 21 18 25 25 24 24 24 21 21 19 19 18 17 17 15 13 11 9 6 4 2 1 0 1 2 3 5 7 9 9
6 2 6 3 6 8 4 6 4 4 1 4 11 14 6 5 16 19 21 24 21 22 22 21 21 21 18 18 16 14 12 10 7 6 4 3 3 3 1 4 4 6 8 9
2 5 5 5 5 5 5 3 2 1 3 5 5 11 9 13 13 12 14 17 19 19 19 20 22 22 21 19 16 14 12 10 7 7 5 4 1 0 2 3 4 5 7 9
5 9 7 5 3 5 2 3 4 2 0 4 3 6 4 3 10 10 5 12 15 17 19 21 23 23 22 19 17 15 13 11 8 6 5 4 4 2 1 2 5 6 6 7
4 2 0 3 4 2 12 6 5 3 1 5 3 5 4 3 3 2 4 5 4 11 13 16 17 19 19 17 16 15 14 12 9 8 6 5 5 3 1 3 4 4 5 5
3 2 1 3 8 4 2 6 1 2 2 5 3 5 13 6 8 8 9 3 2 7 12 14 17 19 19 20 19 16 15 13 11 9 7 6 5 4 3 4 4 5 5 5
10 6 11 7 2 6 9 3 4 5 4 1 3 9 6 5 4 7 5 7 6 8 10 13 16 17 19 20 20 18 17 14 12 10 8 6 6 3 2 4 3 4 4 5
9 4 2 2 0 1 7 7 3 7 2 2 4 8 13 7 11 12 13 6 8 9 11 14 16 17 18 19 20 19 18 14 13 11 9 7 6 5 4 4 3 3 4 4
6 5 1 1 1 2 3 6 4 0 5 7 3 7 10 4 1 3 3 11 10 6 9 11 13 16 16 18 17 17 16 15 14 12 9 7 6 5 5 4 4 4 4 5
5 3 4 4 10 10 5 4 1 1 3 4 3 6 7 7 3 5 3 2 5 10 10 11 12 14 15 16 17 17 17 16 14 12 10 9 7 6 5 5 3 3 3 5
1 5 6 4 1 3 2 4 7 5 7 2 3 7 2 7 5 4 8 5 3 6 10 11 13 14 15 17 18 18 17 16 14 12 11 9 8 6 5 5 4 3 3 5
9 3 4 2 2 2 7 9 5 4 2 9 6 5 2 4 7 7 10 7 5 5 9 10 12 15 16 17 17 18 17 15 14 13 12 11 9 7 5 5 4 3 3 4
6 3 3 6 3 5 7 10 16 11 7 6 14 5 11 8 9 6 6 8 6 7 9 11 12 14 15 15 16 16 15 14 15 14 12 11 10 8 6 6 4 2 2 4
3 2 2 3 4 4 6 6 15 21 21 12 2 14 18 17 19 11 8 6 7 10 12 13 15 16 15 15 15 15 14 14 15 14 10 9 9 8 7 5 4 3 3 4
1 5 4 4 2 6 9 14 12 19 18 17 22 23 17 21 14 17 7 9 9 9 12 15 15 15 17 17 15 15 15 14 14 12 11 11 10 9 7 6 5 4 3 4
7 7 5 7 1 3 18 16 19 12 10 13 17 21 17 18 26 21 17 9 13 14 16 15 18 18 16 17 17 17 16 14 13 13 11 11 11 9 8 7 5 4 3 4
7 6 4 3 2 12 3 1 8 19 16 22 10 8 15 18 5 7 9 10 13 15 12 9 11 12 15 15 16 15 16 16 15 13 12 11 10 10 9 7 6 5 3 4
6 8 5 6 8 12 15 6 9 12 11 20 25 22 20 7 6 19 10 14 16 6 7 8 10 12 14 16 17 17 16 15 14 14 14 12 11 11 10 9 7 5 4 4
6 6 8 6 5 9 2 3 3 6 11 20 18 17 13 7 5 5 2 1 4 2 2 3 8 11 14 15 17 18 18 17 17 16 15 12 11 11 11 10 8 5 4 4
7 4 15 13 7 11 10 2 5 7 5 1 13 10 9 7 7 2 2 1 1 1 2 6 9 10 13 15 17 17 18 20 17 15 15 13 11 11 11 11 7 7 6 5
14 12 8 8 8 17 8 5 10 4 1 5 6 7 8 7 3 5 6 4 3 3 7 7 10 10 11 14 15 16 16 13 14 17 15 14 12 10 9 10 8 7 6 5
9 10 10 14 11 1 7 5 3 1 4 2 2 4 6 8 5 6 6 7 7 7 6 7 10 10 11 13 14 16 14 16 16 15 16 14 12 11 11 11 10 8 6 5
4 3 4 5 14 10 7 1 3 1 3 2 3 2 4 3 4 7 7 4 6 5 6 6 10 12 12 11 13 13 16 18 18 17 16 14 13 13 10 8 8 8 7 6
5 9 10 7 12 5 6 7 6 6 4 5 4 4 7 5 6 6 4 7 6 8 7 9 9 10 12 13 12 14 18 19 18 16 15 14 11 12 11 8 8 7 6 6
9 12 9 10 6 4 1 3 3 5 5 4 3 4 5 5 8 3 7 6 7 9 10 10 9 11 13 14 13 15 17 20 20 17 14 13 12 11 9 9 8 9 10 11
Wind_Direction
49 197 208 202 201 90 131 183 250 216 115 234 241 261 267 249 231 231 226 222 221 221 211 202 197 187 180 182 179 178 176 177 188 193 208 217 232 253 21 13 3 357 355 358
150 233 159 124 149 157 172 214 245 234 130 228 292 278 272 250 236 234 231 225 222 217 208 200 194 188 188 183 184 181 183 179 183 187 188 233 251 146 9 360 4 6 360 360
193 88 135 134 161 169 192 222 214 285 323 236 302 268 269 265 248 246 241 239 231 220 207 197 194 189 189 188 185 186 181 178 177 174 169 168 181 195 219 0 358 4 1 7
221 129 157 154 189 190 220 182 128 101 310 292 345 292 297 281 274 244 247 234 232 222 214 203 195 190 190 189 182 183 176 177 174 177 175 180 142 20 35 350 347 356 9 9
160 166 166 177 186 183 115 110 101 83 261 317 173 260 258 286 289 291 296 234 222 216 211 207 198 192 189 182 181 177 174 176 171 171 172 164 138 112 57 0 346 6 9 11
80 4 348 78 80 11 141 106 86 84 338 268 119 257 264 237 223 305 13 16 217 207 208 211 200 190 187 179 176 174 174 174 169 169 164 154 137 129 91 17 7 7 9 8
128 153 129 165 104 117 216 157 208 219 191 240 128 255 264 245 237 250 282 235 105 184 192 197 193 189 184 181 177 175 178 173 173 170 164 152 135 127 83 34 18 6 10 7
175 206 178 165 253 188 188 214 195 227 213 17 132 238 246 235 229 216 234 252 230 202 186 191 194 190 187 185 181 176 179 172 174 171 161 153 146 134 102 59 32 27 11 356
177 190 57 50 115 194 162 216 77 103 113 248 244 275 270 275 262 247 231 197 207 194 188 188 187 189 189 187 184 180 178 174 173 172 160 158 148 149 117 82 52 30 17 360
166 117 24 76 209 62 243 147 131 340 219 233 217 280 251 265 241 11 208 229 219 195 187 187 188 190 190 188 182 181 180 175 169 167 165 159 148 143 117 96 65 36 23 15
146 140 116 151 210 188 155 191 198 241 211 247 238 232 200 235 244 270 257 220 233 209 191 189 187 186 186 183 182 181 178 172 170 169 162 156 151 146 125 105 81 41 24 26
109 94 149 182 24 325 259 220 191 210 193 256 328 258 155 231 232 254 272 278 205 191 186 185 184 181 184 186 184 185 181 175 171 165 160 158 149 150 133 111 94 52 32 39
177 201 136 155 212 175 219 200 199 90 47 190 200 238 100 251 268 250 249 254 228 190 181 182 181 188 189 190 190 187 182 175 165 163 159 157 152 149 131 117 106 66 35 41
97 127 202 240 121 119 191 219 208 202 216 180 222 273 295 286 234 237 229 235 231 205 193 192 197 201 196 190 185 183 176 167 164 163 161 159 154 147 140 130 121 82 42 59
146 201 147 255 222 195 218 205 196 209 224 229 243 214 240 259 268 245 237 232 206 218 203 201 207 203 197 190 184 177 171 162 164 162 154 149 140 135 138 139 125 102 55 59
319 176 146 246 232 238 260 234 210 212 227 248 258 254 257 265 277 276 241 228 224 229 215 212 208 194 195 187 183 172 168 161 156 149 146 144 143 147 151 142 132 122 98 67
168 144 152 241 205 291 271 229 203 205 183 193 221 229 238 250 252 259 275 229 239 229 229 216 203 197 190 185 176 177 165 153 153 146 144 149 151 153 155 144 142 135 105 81
156 151 176 269 186 234 252 342 215 208 205 208 244 242 222 236 259 251 238 237 242 241 239 220 199 191 182 172 170 163 161 159 154 148 151 155 156 153 152 150 153 141 134 93
168 162 176 206 208 305 294 206 181 179 235 208 224 241 247 241 308 280 241 225 245 239 228 216 186 174 165 166 162 156 158 157 156 158 160 162 160 154 155 156 158 145 140 109
213 219 189 159 217 238 274 303 178 129 276 225 202 231 244 158 234 266 345 356 319 266 300 161 139 145 153 160 156 157 164 165 170 164 162 159 158 153 156 156 155 151 151 119
168 215 218 211 221 269 234 160 142 182 240 152 185 217 148 195 210 205 279 323 336 35 112 109 127 147 155 153 158 167 169 180 165 151 149 154 158 155 154 152 152 151 152 130
168 172 197 208 201 256 151 85 202 203 17 114 137 179 186 232 176 217 229 194 175 186 141 143 140 145 145 156 164 167 175 162 149 145 149 154 155 153 154 152 151 154 151 133
195 190 175 198 207 202 195 194 232 158 137 170 152 174 182 183 209 227 223 194 199 188 179 155 144 139 153 166 173 167 163 143 147 151 151 153 150 150 158 157 155 158 164 152
248 203 214 142 237 230 215 266 265 253 222 202 259 235 145 230 196 227 263 202 165 167 188 164 143 152 165 176 174 166 147 148 149 154 153 152 154 153 160 161 161 162 164 160
199 156 217 253 269 309 240 212 219 244 237 234 226 238 235 206 255 224 231 231 195 174 171 176 169 161 162 170 170 148 153 153 155 154 155 159 156 159 157 166 167 167 162 167
208 217 215 240 241 255 330 14 145 216 256 269 208 267 250 205 251 181 226 213 187 186 167 177 175 160 159 170 154 160 160 163 157 156 161 165 157 160 161 156 153 160 154 150